User: anonymous   Login
Location: Melbourne
(37.8170°S, 144.9670°E)
Time: 12:50:35
(UTC+10:00)
Language:

ERBS - Orbit

View from above orbital plane
View from above orbital plane
View from above satellite
View from above satellite

Ground track
Ground track

The orbit data is extracted from the following two-line orbital elements,

1 15354U 84108B   15186.82952931  .00010069  00000-0  29067-3 0  9992
2 15354 057.0121 310.8318 0012920 172.0119 188.1141 15.36265316688425
Epoch (UTC): 05 July 2015 19:54:31
Eccentricity: 0.0012920
inclination: 57.0121°
perigee height: 448 km
apogee height: 466 km
right ascension of ascending node: 310.8318°
argument of perigee: 172.0119°
revolutions per day: 15.36265316
mean anomaly at epoch: 188.1141°
orbit number at epoch: 68842

The dashed part of the orbit path shows where the satellite is in the earth's shadow,  

DLR